Regional Weather Roundup
Issued by NWS Glasgow, MT

Home | Current Version | Previous Version | Text Only | Print | Product List | Glossary On
Versions: 1 2 3 4 5 6 7 8 9 10 11 12 13 14 15 16 17 18 19 20 21 22 23 24 25 26 27
000
ASUS45 KGGW 260115
RWRGGW
HOURLY WEATHER ROUNDUP FOR NORTHEAST MONTANA
NATIONAL WEATHER SERVICE GLASGOW MONTANA
700 PM MDT SAT OCT 25 2014

NOTE: "FAIR" INDICATES FEW OR NO CLOUDS BELOW 12,000 FEET WITH NO
SIGNIFICANT WEATHER AND/OR OBSTRUCTIONS TO VISISBILITY.

NORTHEAST MONTANA


CITY           SKY/WX    TMP DP  RH WIND       PRES   REMARKS
GLASGOW        PTCLDY    56  31  38 E17       29.74F
PLENTYWOOD       N/A     52  29  41 E8          N/A
WOLF POINT     PTCLDY    51  32  48 NE7       29.80F
JORDAN           N/A     56  33  42 E9        29.73F
WINNETT          N/A     59  36  42 CALM        N/A
SIDNEY         CLEAR     54  30  40 E8        29.87F
GLENDIVE       CLEAR     55  34  44 E9        29.83F
MALTA            N/A     54  38  54 E2          N/A
SCOBEY           N/A     50  29  44 E10       29.83F

FORT PECK REPORTS


CITY           SKY/WX    TMP DP  RH WIND       PRES   REMARKS
FORT PECK        N/A     61  39  44 E21         N/A
THE PINES        N/A     59  33  37 E5          N/A

SOUTHEAST MONTANA


CITY           SKY/WX    TMP DP  RH WIND       PRES   REMARKS
BILLINGS       MOCLDY    56  35  45 N8        29.73F
MILES CITY     CLEAR     65  36  34 SE7       29.75F
BAKER          CLEAR     54  33  45 E14       29.86F
LIVINGSTON     MOCLDY    72  25  17 S28G37    29.75F

CENTRAL MONTANA


CITY           SKY/WX    TMP DP  RH WIND       PRES   REMARKS
HAVRE          CLOUDY    56  38  50 E10       29.64F
LEWISTOWN      CLOUDY    55  44  66 SE6       29.73F
GREAT FALLS    CLOUDY    51  42  71 E3        29.65F
CUT BANK       PTCLDY    48  39  71 E9        29.64F
HELENA         CLOUDY    52  43  71 CALM      29.70F
BUTTE          MOCLDY    56  33  42 S13       29.78F
BOZEMAN        CLOUDY    62  34  35 VRB5      29.76F

WESTERN MONTANA


CITY           SKY/WX    TMP DP  RH WIND       PRES   REMARKS
MISSOULA       MOCLDY    46  43  89 VRB5      29.69F
KALISPELL      NOT AVBL

NORTH DAKOTA


CITY           SKY/WX    TMP DP  RH WIND       PRES   REMARKS
WILLISTON      CLEAR     51  30  44 E7        29.89F
DICKINSON      CLEAR     50  32  50 SE13      29.90F
MINOT          CLEAR     46  27  47 E6        29.97F
BISMARCK       CLEAR     46  31  55 E7        30.01F

SOUTHERN SASKATCHEWAN


CITY           SKY/WX    TMP DP  RH WIND       PRES   REMARKS
REGINA         MOCLDY    48  30  49 SE12      29.88F
ESTEVAN        CLOUDY    46  30  53 E10       29.92F
SWIFT CURRENT  CLEAR     48  28  46 E21G28    29.73F




USA.gov is the U.S. government's official web portal to all federal, state and local government web resources and services.